Regional Weather Roundup
Issued by NWS Northern Indiana

Home | Current Version | Previous Version | Text Only | Print | Product List | Glossary On
Versions: 1 2 3 4 5 6 7 8 9 10 11 12 13 14 15 16 17 18 19 20 21 22 23 24 25 26 27 28 29 30 31 32 33 34 35 36 37 38 39 40 41 42 43 44 45 46 47 48 49 50
887
ASUS43 KIWX 270510
RWRIWX

KIWX WEATHER ROUNDUP
NATIONAL WEATHER SERVICE NORTHERN INDIANA
100 AM EDT WED JUL 27 2016

NOTE: "FAIR" INDICATES FEW OR NO CLOUDS BELOW 12,000 FEET WITH NO
SIGNIFICANT WEATHER AND/OR OBSTRUCTIONS TO VISIBILITY.

* THESE STATIONS ARE NOT UNDER NWS QUALITY CONTROL. THEY ALSO MAY NOT
  REPORT WEATHER SUCH AS PRECIPITATION OR FOG.

INZ001>027-270600-
NORTHERN INDIANA

CITY           SKY/WX    TMP DP  RH WIND       PRES   REMARKS
GARY*          CLEAR     70  69  96 CALM      30.02F
VALPARAISO     CLEAR     70  65  84 CALM      30.03F
MICHIGAN CITY* FOG       64  64 100 CALM      30.03S VSB 1/2
LAPORTE*       CLEAR    N/A N/A N/A CALM      30.04S
KNOX*          CLEAR     64  63  94 CALM      30.02S
SOUTH BEND     CLEAR     67  63  87 CALM      30.03S
GOSHEN         CLEAR     69  63  81 S3        30.03S
MONTICELLO*    CLEAR     68  64  87 CALM      30.02S
LOGANSPORT*    CLEAR     66  64  94 CALM      30.03F
ROCHESTER*     CLEAR     70  68  94 CALM      30.03F
WARSAW*        CLEAR     64  63  94 CALM      30.04S
ANGOLA*          N/A     66  57  72 CALM      30.04R
FORT WAYNE     PTCLDY    69  63  81 W3        30.02S
HUNTINGTON*    CLEAR     68  67  96 CALM      30.02F
PERU/GRISSOM   CLEAR     68  65  89 CALM      30.01F
MARION*        CLEAR     64  63  94 CALM      30.03F

$$
INZ028>050-270600-
CENTRAL INDIANA

CITY           SKY/WX    TMP DP  RH WIND       PRES   REMARKS
LAFAYETTE      CLEAR     68  67  96 CALM      30.02S
KOKOMO*        CLEAR     68  61  77 NW3       30.03S
MUNCIE*        CLEAR     69  67  93 CALM      30.03S
INDIANAPOLIS   MOCLDY    73  66  78 NW3       30.03S

$$
MIZ043>046-050>051-056>058-064>065-071>073-077>080-270600-
SOUTHWEST LOWER MICHIGAN

CITY           SKY/WX    TMP DP  RH WIND       PRES   REMARKS
BATTLE CREEK   CLEAR     68  66  93 CALM      30.03S
BENTON HARBOR  CLEAR     64  61  90 CALM      30.02R FOG
COLDWATER*     CLEAR     66  65  96 CALM      30.03S
HOLLAND        CLEAR     65  63  93 CALM      30.02S
GRAND RAPIDS   CLEAR     69  62  78 CALM      30.01F
KALAMAZOO      CLEAR     69  63  81 CALM      30.02F
STURGIS*       CLEAR     67  64  89 CALM      30.02F
THREE RIVERS*  FAIR      67  64  90 CALM      30.03S

$$
OHZ001>008-015>018-024>025-270600-
NORTHWEST OHIO

CITY           SKY/WX    TMP DP  RH WIND       PRES   REMARKS
DEFIANCE       CLEAR     71  64  78 CALM      30.02S
FINDLAY        CLEAR     71  61  70 CALM      30.01F
TOLEDO EXPRESS CLEAR     67  66  97 CALM      30.01S
TOLEDO METCALF CLEAR     70  62  76 S6        30.02S
LIMA           CLEAR     70  64  81 E5        30.03S

$$
AND FOR LAKE MICHIGAN COASTAL AND OPEN LAKE BUOY OBSERVATIONS

STATION/POSITION TEMP    WIND        PRES    VSBY  WAVE
                 AIR SEA DIR/SP/G                  HT/PER
                 (F)     (DEG/KT/KT) (MB)    (MI)  (FT/S)
CALUMET HARBOR    76      80/  3/  4 1015.9
MICHIGAN CITY     74     130/  3/  3   N/A
BURNS HARBOR      76      CALM  /  7 1016.9S
SAINT JOSEPH      71      CALM  /  2 1016.6F
SOUTH LAKE BUOY   75 76  200/  6/  6 1015.7R         0
4 MI NW BRIDGMAN  75 78  170/  2/  4 1016.2R         0
MICHIGAN CITY     75 77  160/  6/  6   N/A           0

$$
&&




USA.gov is the U.S. government's official web portal to all federal, state and local government web resources and services.